Miscellaneous Local Product
Issued by NWS Hastings, NE

Home | Current Version | Previous Version | Text Only | Print | Product List | Glossary Off
Versions: 1 2 3 4 5 6 7 8 9 10 11 12 13 14 15 16 17 18 19 20 21 22 23 24 25 26 27 28 29 30 31 32 33 34 35 36 37 38 39 40 41 42 43 44 45 46 47 48 49 50

000
AXUS43 KGID 261702
MISGRI

GID CWA HOURLY WEATHER ROUNDUP
NATIONAL WEATHER SERVICE HASTINGS NE
1200 PM CDT TUE JUL 26 2016

NOTE: "FAIR" INDICATES FEW OR NO CLOUDS BELOW 12,000 FEET WITH NO
SIGNIFICANT WEATHER AND/OR OBSTRUCTIONS TO VISIBILITY.

...SOUTH CENTRAL NEBRASKA...

CITY           SKY/WX    TMP DP  RH WIND       PRES   REMARKS
GRAND ISLAND   SUNNY     81  65  58 SE10G16   30.09F
HASTINGS       SUNNY     82  66  58 S7        30.10S
KEARNEY        SUNNY     81  66  61 S12       30.10S
ORD            SUNNY     81  65  58 S10       30.06F
YORK           SUNNY     81  68  65 S9        30.09F
AURORA         SUNNY     81  65  56 S10       30.09S
LEXINGTON      SUNNY     79  67  66 S12       30.09F
HOLDREGE       SUNNY     78  66  66 S7        30.09F
HEBRON         SUNNY     83  66  56 S7        30.08S

...NEBRASKA PANHANDLE...

CITY           SKY/WX    TMP DP  RH WIND       PRES   REMARKS
CHADRON        SUNNY     82  60  47 E13       30.04F
ALLIANCE       SUNNY     83  63  50 S10       30.07R
SCOTTSBLUFF    SUNNY     85  56  37 NE6       30.06R
SIDNEY         CLOUDY    84  58  40 S14       30.11S

...WESTERN AND NORTH CENTRAL NEBRASKA...

CITY           SKY/WX    TMP DP  RH WIND       PRES   REMARKS
VALENTINE      MOSUNNY   87  63  44 W13       30.09R
AINSWORTH      SUNNY     83  67  56 S13       30.06R
ONEILL         SUNNY     85  57  38 S13       30.07S
BROKEN BOW     SUNNY     79  68  69 S12       30.08F
IMPERIAL       SUNNY     82  66  58 S16       30.08S
NORTH PLATTE   SUNNY     82  66  58 S12       30.06F
MCCOOK         SUNNY     83  66  56 S13       30.07F

...EASTERN NEBRASKA...

CITY           SKY/WX    TMP DP  RH WIND       PRES   REMARKS
NORFOLK        SUNNY     81  65  58 S8        30.08F
SO SIOUX CITY  SUNNY     85  68  56 SW12      30.08S
TEKAMAH        SUNNY     84  64  50 S9        30.09S
COLUMBUS       SUNNY     81  64  57 S8        30.09S
ALBION         SUNNY     80  64  58 S9        30.09F
OMAHA EPPLEY   MOSUNNY   83  63  50 SE8       30.09R
OFFUTT AFB     SUNNY     83  65  52 E7        30.08S
MILLARD        SUNNY     83  64  54 SE8       30.09R
LINCOLN        SUNNY     84  66  54 SE8       30.09S
NEBRASKA CITY  SUNNY     81  64  56 SE6       30.09S
BEATRICE       SUNNY     83  64  52 SE8       30.08S
FALLS CITY     SUNNY     82  68  62 E8        30.07S

...NORTHERN KANSAS...

CITY           SKY/WX    TMP DP  RH WIND       PRES   REMARKS
GOODLAND       MOSUNNY   79  67  66 S14       30.12F
HILL CITY      SUNNY     81  68  64 S8        30.09F
NORTON         SUNNY     81  61  50 S12       30.09F
SMITH CENTER   SUNNY     82  64  54 S8        30.08F
BELOIT         PTSUNNY   81  68  65 CALM      30.06S
HAYS           PTSUNNY   79  63  57 SW3       30.09S
RUSSELL        MOSUNNY   82  68  62 VRB5      30.07S
CONCORDIA      SUNNY     81  68  64 VRB5      30.08S
SALINA         PTSUNNY   84  70  62 VRB5      30.06S
TOPEKA         SUNNY     84  68  58 E10       30.06



USA.gov is the U.S. government's official web portal to all federal, state and local government web resources and services.